Terminal Aerodrome Forecast
Issued by NWS

Home | Current Version | Previous Version | Text Only | Print | Product List | Glossary On
Versions: 1 2 3 4 5 6 7 8 9 10 11 12
000
FTUS42 TJSJ 061130
TAFKPK
TAF
TKPK 061130Z 0612/0712 08011KT P6SM SCT021
     FM061300 07015KT P6SM FEW020
     FM062300 05012KT P6SM FEW020=

USA.gov is the U.S. government's official web portal to all federal, state and local government web resources and services.